Home > Time Zones > World Clock > Weather > Chad > Sarh > Past weeks

Flag for Chad Weather past 2 weeks in Sarh, Chad

Now
82 °F

Scattered clouds.


Feels Like: 87 °F
Forecast: 72 / 77 °F
Wind: 8 mph from Northwest

Location: Sarh Airport

Current Time: Aug 29, 2015 at 2:08:00 PM

Latest Report: Aug 29, 2015 at 11:00 AM


Visibility: N/A

Pressure: 30.01 "Hg

Humidity: 70%

Dew point: 72 °F

Location of SarhLocation

Historic Weather in Sarh — Graph

°F

Sarh temperature yesterday

Maximum temperature yesterday: 90 °F (at 12:00 PM)
Minimum temperature yesterday: 73 °F (at 9:00 PM)
Average temperature yesterday: 78 °F

Past Weeks' High & Low Weather Summary

 TemperatureHumidityPressure
High93 °F (Aug 20, 1:00 PM)100% (Aug 26, 8:00 AM)30.07 "Hg (Aug 26, 8:00 AM)
Low68 °F (Aug 26, 8:00 AM)49% (Aug 20, 1:00 PM)29.77 "Hg (Aug 22, 8:00 PM)
Average79 °F81%29.92 "Hg
* Reported Aug 14 11:00 AM — Aug 29 11:00 AM, Sarh, Weather by CustomWeather, © 2015

Note: Actual official high and low records may vary slightly from our data, if they occured in-between our weather recording intervals... More about our weather records

Advertising

Sarh weather history for previous 24 hours

 ConditionsComfort  
Time TempWeatherWind HumidityBarometerVisibility
11:00 AM
Sat, Aug 29
82 °FScattered clouds.8 mph70%30.01 "HgN/A
8:00 AM77 °FPassing clouds.6 mph83%29.98 "HgN/A
7:00 AM73 °FPassing clouds.7 mph94%29.98 "HgN/A
6:00 AM73 °FPassing clouds.No wind94%29.95 "HgN/A
5:00 AM73 °FPassing clouds.No wind94%29.98 "HgN/A
4:00 AM73 °FPassing clouds.No wind94%29.98 "HgN/A
3:00 AM73 °FClear.5 mph94%29.95 "Hg10 mi
2:00 AM73 °FClear.No wind94%29.98 "Hg10 mi
12:00 AM73 °FClear.No wind94%29.95 "Hg10 mi
11:00 PM
Fri, Aug 28
73 °FClear.No wind89%29.95 "Hg10 mi
10:00 PM73 °FClear.No wind89%29.95 "Hg10 mi
9:00 PM73 °FClear.No wind89%29.92 "Hg10 mi
8:00 PM75 °FClear.No wind83%29.92 "Hg10 mi
7:00 PM75 °FThunderstorms. Passing clouds.6 mph83%29.92 "HgN/A
6:00 PM75 °FThunderstorms. Passing clouds.No wind89%29.92 "HgN/A
5:00 PM77 °FThunderstorms. Passing clouds.8 mph83%29.89 "HgN/A
4:00 PM77 °FThunderstorms. Passing clouds.7 mph89%29.89 "HgN/A
3:00 PM81 °FThunderstorms. Scattered clouds.No wind84%29.92 "HgN/A
2:00 PM81 °FThunderstorms. Passing clouds.7 mph74%29.89 "HgN/A
Weather by CustomWeather, © 2015

See weather overviewHow to use our weather pages